Погода Мыс Стерлегова

Погода Мыс Стерлегова : погода сейчас, прогноз погоды и архив. Всё, что Вы хотите узнать о погоде Мыс Стерлегова!

Поиск расширенной информации на нашем сайте:

Другие новости

Новости СМИ2

Главная страница сайта

Новости сайта

03.07.2017

Напоминаем, что на нашем специализированном сайте Метеоцентр.Азия вы можете получить высокодетализированные автоматические прогнозы погоды по пунктам России, СНГ и мира в авиационном формате (включающие направление и скорость ветра, видимость, явления погоды, количество и форму облачности, нижнюю и верхнюю границу облачности).


Погода Мыс Стерлегова - сегодня

Время (UTC), дата Ветер
(°,м/с) 
Видим.   Явления Облачность Т
(°С)
Тd
(°С)
f(%) Тe
(°С)
Pmin
(гПа)
dP
(гПа)
Po
(мм)
O2
(г/м3)
Тmin Tmax R s Состояние
почвы
09 19.05.18 360 (С) 20000 м  {ливн. осадки}  10/3 300 м средняя 
[Sc|Ac und]
-9.1 -12.4 77 -12  1017.4  -0.2  762  319           
12 19.05.18 330 (СЗ) 10 км  слаб. снег{ливн. осадки}  10/0 средняя 
[As op]
-9.5 -12 82 -13  1017  -0.3  762  319    -8.9  0.2     
21 19.05.18 210 (ЮЗ) 20000 м    10/10 630 м 
[Sc]
-10.9 -13.3 82 -13  1015.4  -0.5  761  320           
00 20.05.18 200 (Ю) 20000 м    10/6 570 м средняя 
[Sc|As op]
-10.6 -12.9 83 -12  1014.7  -0.7  760  320  -10.9      48  неравномерный
сухой снег
100% 
03 20.05.18 200 (Ю) 20000 м    10/6 600 м средняя 
[Sc|As op]
-9.8 -12.7 79 -13  1013.9  -0.8  759  319           
06 20.05.18 170 (Ю) 10 км  слаб. снег  10/0 средняя 
[As op]
-10 -13.2 77 -13  1013.1  -0.8  759  319           
09 20.05.18 160 (Ю) 10 км  слаб. снег  10/0 средняя 
[As op]
-10.5 -13.8 77 -15  1012.7  -0.5  758  319           
12 20.05.18 150 (ЮВ) 20000 м  {снег}  10/0 средняя 
[Ac As]
-10.5 -13.5 79 -15  1011.2  -1.4  757  319    -9.4  0.0     
15 20.05.18 100 (В) 20000 м    10/0 средняя 
[As op]
-11.4 -13.3 86 -13  1010.2  -1  757  319           
18 20.05.18 090 (В) 20000 м    10/0 средняя, верхняя 
[Ac trans|Ci fib]
-14.5 -16.6 84 -19  1008.6  -1.7  755  323           
21 20.05.18 060 (СВ) 20000 м    10/0 средняя 
[Ac As]
-13.2 -15.1 86 -18  1006.5  -2  754  321           
00 21.05.18 050 (СВ) 10 км  слаб. снег  10/0 средняя 
[As op]
-10.5 -12.3 87 -16  1004.6  -1.9  752  316  -14.6    0.0  47  неравномерный
сухой снег
100% 
03 21.05.18 050 (СВ) 20000 м  позёмок{снег}  10/0 средняя 
[As trans]
-9 -10.8 87 -14  1002.8  -1.8  751  314           
06 21.05.18 030 (СВ) 20000 м  {снег}  10/0 средняя 
[As trans]
-6.8 -8.7 86 -11  1001  -1.7  750  311           
09 21.05.18 360 (С) 20000 м    10/0 средняя 
[As trans]
-7.2 -9.3 85 -11  1000.3  -0.7  749  311           
12 21.05.18 300 (СЗ) 20000 м    10/0 верхняя 
[Cs]
-9 -11 85 -12  999.7  -0.6  749  313    -6.6  0.0     
15 21.05.18 220 (ЮЗ) 20000 м    10/0 верхняя 
[Cc]
-13.2 -14.8 88 -17  998.7  -1.1  748  318           
18 21.05.18 200 (Ю) 20000 м    10/0 средняя, верхняя 
[Ac trans|Ci fib]
-13.3 -14.9 88 -19  997.6  -1  747  318           
21 21.05.18 130 (ЮВ) 20000 м    10/0 верхняя 
[Ci fib]
-14.2 -16 86 -19  997  -0.6  747  319           
00 22.05.18 140 (ЮВ) 20000 м    8/0 средняя, верхняя 
[Ac trans|Ci fib]
-12.6 -14.4 86 -18  996.4  -0.6  746  317  -14.6      47  неравномерный
сухой снег
100% 
03 22.05.18 130 (ЮВ) 20000 м    8/0 средняя, верхняя 
[Ac trans|Ci fib]
-8.3 -10.6 83 -12  996.3  -0.1  746  311           
06 22.05.18 130 (ЮВ) 20000 м    10/0 средняя 
[Ac und]
-5.8 -8.2 83 -10  997  0.7  747  308           
09 22.05.18 130 (ЮВ) 20000 м    10/0 средняя 
[Ac und]
-4.7 -6.8 85 -9  998.1  1.1  748  307           
15 22.05.18 140 (ЮВ) 4000 м  слаб. снег  10/0 средняя 
[As op]
-4.4 -5.7 91 -8  1000.9  1.3  750  308           
18 22.05.18 150 (ЮВ) 4000 м  слаб. снег  10/0 средняя 
[As op]
-4.1 -5.4 91 -9  1001.6  0.7  750  307           
Время (UTC), дата Ветер
(°,м/с) 
Видим.   Явления Облачность Т
(°С)
Тd
(°С)
f(%) Тe
(°С)
Pmin
(гПа)
dP
(гПа)
Po
(мм)
O2
(г/м3)
Тmin Tmax R s Состояние
почвы

Для получения пояснительной информации подведите курсор к названию столбца.

ПОГОДА Мыс Стерлегова - архив

Всё, что Вы хотите узнать о погоде Мыс Стерлегова - удобно и подробно!

Выберите нужную дату (начиная с 1 января 2015* года) и нажмите кнопку "Найти".
Будут отображены архивные сводки погоды по пункту Мыс Стерлегова, начиная с указанной даты.


Отображать данные в формате CSV (для использования в таблицах Excel)


Внимание! Наш архив погоды предназначен исключительно для личного некоммерческого использования в познавательных целях. Если Вам необходимы официальные справки о состоянии погоды (для производственных, юридических, коммерческих и т.п. целей), обращайтесь в органы Росгидромета.

*Примечание: данная дата относится к архиву по метеостанциям СССР (Россия, СНГ, Балтия).
Архив по метеостанциям Зарубежной Европы и Азии (кроме Китая) хранится 10 дней, по другим регионам земного шара (Китай, Африка, Америка, Австралия, Океания) - 1 день.

Мыс Стерлегова - район местоположения метеостанции


Название, широта, долгота, высота метеостанции:
Мыс Стерлегова 75.4°ш. 88.8°д. 10 м над ур. моря [Российская Федерация]

Дополнительная информация

В oтличие oт бoльшинства пoгoдных сайтoв мы публикуем пoдрoбную метеoинфoрмацию в детальнoм прoфессиoнальнoм фoрмате.

Характеристики температуры и влажнoсти вoздуха измеряются на высoте 2 м в тени вдали oт зданий и деревьев.
Скoрoсть ветра измеряется на высoте 10 м (на урoвне рoста челoвека скoрoсть ветра ниже в 1.5-2 раза). Если метеoстанция нахoдится в гoрoде или в лесу, тo скoрoсть ветра занижена на 2-4 м/с пo сравнению с oткрытым местoм. Скoрoсть ветра над акватoриями крупных рек и oзёр, а также на вершинах хoлмoв на 2-5 м/с выше, чем в oбычных услoвиях.
Атмoсфернoе давление в разных тoчках местнoсти мoжет значительнo oтличаться oт давления на метеoстанции, в зависимoсти oт услoвий рельефа (при пoдъёме на 10 м давление пoнижается примернo на 1 мм рт.ст.).